loading
DOY 175 | 2024-06-23T10:58:51Z

ATLAS AGENA B DEB, 630

Orbit data source: Space-Track

ATLAS AGENA B DEB, 630 is space debris originally from a launch on Fri, 19 Jul 1963 UTC launched from the Air Force Western Test Range (AFWTR). Debris objects in space refer to the collection of defunct objects orbiting the Earth. Examples of debris include non-operational satellites, rocket bodies, and fragments generated from explosions, collisions, or faulty payload assembly.

Loading next visibility...
Loading greatness...
ATLAS AGENA B DEB details
NORAD ID630
COSPAR ID
1963-030C
Orbit
Active
Last TLE update1 day ago
Origin
Flag of USUSAF SSD (US)
ManufacturerUnknown
BusUnknown
MotorUnknown
Mass~10 kg wet, ~10 kg dry
Launch date (UTC)
1963-07-19 (61 years ago)
Launch vehicleUnknown
Launch site
Air Force Western Test Range (AFWTR)
Object type
Payload
Rocket body
Debris
Radar Cross SectionMedium (>0.1 m² and <1 m²)
Predictive object data (real-time)
Latitude14.52567°
Longitude-89.84744°
Altitude3,697.543 km
Speed6.288 km/s
Apparent Right ascension14h 25m 22s
Apparent Declination-8° 11' 44"
Sunlit
Object is in daylight
Predictive observer data (real-time)
Local Sidereal Time22:06:48
Azimuth280.308° WNW
Elevation-24.62°
Doppler factor1
Orbital elements
Apogee3,721.75 km
Perigee3,646.272 km
Semi-major axis10,062.148 km
Eccentricity0.0037506
Inclination88.4053°
RAAN242.9916°
Arg. of periapsis270.528°
True anomaly89.55716°
Mean anomaly89.1274°
Mean motion2.15034 °/min
BSTAR0.015155
Period167.42 mins
Definitive object data (Epoch: 2024-06-22T04:09:21.193Z)
Latitude0.00001°
Longitude-90.18701°
Altitude3,687.938 km
Speed6.294 km/s
True Right ascension16h 11m 57s
True Declination0° 00' 00"
Sunlit
Object was in full shadow at TLE epoch
TLE from 1 day ago
0 ATLAS AGENA B DEB
1 00630U 63030C   24174.17316196  .00000033  00000-0  15155-1 0  9997
2 00630  88.4053 242.9916 0037506 270.5280  89.1274  8.59856160912514
Epoch: 2024-06-22T04:09Z
No data available

ATLAS AGENA B DEB Visibility forecast

Observer location: 39.9160978°, -105.1181434, 0m alt.

ATLAS AGENA B DEB is not visible in the next 10 days
Span
Click to sort rows by Start time (UTC) header in descending order
Start Az.
Max El. time (UTC)
Max El. Az.
Max El.
End time (UTC)
End Az.